Tracking 17925 objects as of 19-February-2017
HD Live streaming from Space Station
objects crossing your sky now

COSMOS 2430

Track COSMOS 2430 now!
COSMOS 2430 is classified as:


NORAD ID: 32268
Int'l Code: 2007-049A
Perigee: 296.5 km
Apogee: 40,182.0 km
Inclination: 63.6 °
Period: 720.0 minutes
Semi major axis: 26610 km
RCS: 3.1623 m2 (large)
Launch date: October 23, 2007
Source: Commonwealth of Independent States (former USSR) (CIS)
Launch site: PLESETSK MISSILE AND SPACE COMPLEX (PKMTR)
Your satellite tracking list
Your tracking list is empty





NASA's NSSDC Master Catalog

Two Line Element Set (TLE):
1 32268U 07049A   17049.72303639 -.00001384  00000-0  69898-4 0  9996
2 32268  63.5929 333.6598 7494399 241.4333  26.1901  2.00532744 68335
Source of the keplerian elements: AFSPC